This is the latest recevied weather packets stored in our database for station/object DL6JOE-10. If no packets are shown the sender has not sent any weather packets the latest 10 day(s).
| Time | Temp. | Humidity | Pressure | Rain* | Wind** | Luminosity | Snow |
|---|---|---|---|---|---|---|---|
| 1777451747 | 18.33° C | 33% | 966.7 hPa | - | - | - | - |
| 1777450847 | 17.78° C | 34% | 966.8 hPa | - | - | - | - |
| 1777449947 | 17.78° C | 34% | 966.8 hPa | - | - | - | - |
| 1777449046 | 16.67° C | 35% | 966.8 hPa | - | - | - | - |
| 1777448146 | 15.56° C | 36% | 966.8 hPa | - | - | - | - |
| 1777447249 | 14.44° C | 37% | 966.8 hPa | - | - | - | - |
| 1777446346 | 13.89° C | 38% | 966.8 hPa | - | - | - | - |
| 1777445446 | 13.89° C | 38% | 966.9 hPa | - | - | - | - |
| 1777444546 | 13.89° C | 38% | 966.8 hPa | - | - | - | - |
| 1777443646 | 13.33° C | 38% | 966.7 hPa | - | - | - | - |
| 1777442746 | 13.33° C | 38% | 966.6 hPa | - | - | - | - |
| 1777441846 | 13.33° C | 38% | 966.5 hPa | - | - | - | - |
| 1777440946 | 13.33° C | 38% | 966.3 hPa | - | - | - | - |
| 1777440046 | 13.33° C | 38% | 966.1 hPa | - | - | - | - |
| 1777439146 | 13.33° C | 38% | 965.9 hPa | - | - | - | - |
| 1777438246 | 13.89° C | 38% | 965.8 hPa | - | - | - | - |
| 1777437345 | 13.33° C | 37% | 965.5 hPa | - | - | - | - |
| 1777436445 | 13.89° C | 37% | 965.4 hPa | - | - | - | - |
| 1777435545 | 13.89° C | 37% | 965.4 hPa | - | - | - | - |
| 1777434645 | 13.89° C | 37% | 965.2 hPa | - | - | - | - |
| 1777433745 | 14.44° C | 37% | 965.1 hPa | - | - | - | - |
| 1777432845 | 14.44° C | 36% | 965.1 hPa | - | - | - | - |
| 1777431945 | 14.44° C | 36% | 965 hPa | - | - | - | - |
| 1777431045 | 14.44° C | 36% | 964.9 hPa | - | - | - | - |
| 1777430145 | 15° C | 36% | 964.9 hPa | - | - | - | - |
* Rain since midnight (hover to see other rain measurements)
** Current wind speed in m/s (hover to see current wind gust speed)